Location: Peterborough
(44.3091°N, 78.3197°W)
Time: 22:59:46
(UTC-04:00)

Vanguard 1 - Pass Details

Date: 17 April 2024
Orbit: 652 x 3825 km, 34.2° (Epoch: 29 May)

Event Time Altitude Azimuth Distance (km) Brightness Sun altitude
Rises 06:43:25 0° 238° (WSW) 7,759 14.0 2.3°
Reaches altitude 10° 06:49:22 10° 234° (SW) 6,457 13.7 3.4°
Maximum altitude 07:07:01 48° 169° (SSE) 2,957 12.6 6.5°
Drops below altitude 10° 07:17:14 10° 99° (E) 3,874 15.0 8.3°
Sets 07:19:50 0° 93° (E) 4,539 15.6 8.7°
